Weather in Myldzhino

Russia / Tomsk District     58°59′49″N   78°28′26″E
temp.,
°C
wind,
m/s
gust,
m/s
humid.,
%
clouds,
%
prec.,
mm/h
press.,
hPa
HPBL,
m
16 april, fri
fri1601:00+9wsw513899 0.0 1009456
04:00+7wnw379499 0.0 1008215
07:00+1nne41096100 0.7 1011510
10:00+1n4893100 3.7 1013729
13:00+4nnw5861100 3.8 10141595
16:00+4nnw695690 0.3 10161895
19:00−2n687184 0.3 10211321
22:00−5n58643 0.1 1024916
17 april, sat
sat1701:00−7n36660 0.1 1026677
04:00−7nw22600 0.0 1026471
07:00−7sw2467100 0.0 1025375
10:00−4sw4748100 0.0 1024684
13:000wsw58365 0.0 10211240
16:00+3wsw5840100 0.0 10192195
19:00+3sw4952100 0.0 10161562
22:00+1ssw51359100 0.1 10121344
18 april, sun
sun1801:00−1sw51393100 1.1 10091048
04:000w3998100 3.1 1006709
07:00−7nnw51188100 5.4 1011626
10:00−7n576377 0.1 1012753
13:00−5n5756100 0.1 10141147
16:00−4n6751100 0.0 10151738
19:00−5n6861100 0.1 10171660
22:00−9n6106781 0.1 10201138
19 april, mon
mon1901:00−11nnw597263 0.1 10221031
04:00−12nnw51074100 0.0 10231046
07:00−13nw5979100 0.1 10251005
10:00−11nnw6866100 0.1 10271189
13:00−7nw6857100 0.1 10281466
16:00−5nnw6953100 0.0 10291718
19:00−4nnw4856100 0.1 10291719
22:00−7nw397241 0.1 1031427
20 april, tue
tue2001:00−9wnw28855 0.1 1031256
04:00−10w28885 0.0 1030226
07:00−9wsw3884100 0.0 1029312
10:00−5wsw5870100 0.0 1027807
13:00−2sw6975100 0.1 10241016
16:00−1sw51087100 0.6 10211036
19:00−1wsw41194100 2.1 1019773
22:000wsw41298100 1.3 1016766